This is the latest recevied weather packets stored in our database for station/object SV1JCZ-13. If no packets are shown the sender has not sent any weather packets the latest 1 day(s).
| Time | Temp. | Humidity | Pressure | Rain* | Wind** | Luminosity | Snow |
|---|---|---|---|---|---|---|---|
| 1778079803 | 23.33° C | 43% | 0 hPa | 0 mm | - | - | - |
| 1778079443 | 23.33° C | 42% | 0 hPa | 0 mm | - | - | - |
| 1778079083 | 23.89° C | 43% | 0 hPa | 0 mm | - | - | - |
| 1778078964 | 23.89° C | 42% | 0 hPa | 0 mm | - | - | - |
| 1778078363 | 23.89° C | 42% | 0 hPa | 0 mm | - | - | - |
| 1778078003 | 23.89° C | 41% | 0 hPa | 0 mm | - | - | - |
| 1778077764 | 23.89° C | 41% | 0 hPa | 0 mm | - | - | - |
| 1778077643 | 23.89° C | 41% | 0 hPa | 0 mm | - | - | - |
| 1778077283 | 23.89° C | 40% | 0 hPa | 0 mm | - | - | - |
| 1778076563 | 23.89° C | 39% | 0 hPa | 0 mm | - | - | - |
| 1778076203 | 23.89° C | 39% | 0 hPa | 0 mm | - | - | - |
| 1778075483 | 24.44° C | 38% | 0 hPa | 0 mm | - | - | - |
| 1778075364 | 24.44° C | 38% | 0 hPa | 0 mm | - | - | - |
| 1778075123 | 24.44° C | 38% | 0 hPa | 0 mm | - | - | - |
| 1778074403 | 25° C | 37% | 0 hPa | 0 mm | - | - | - |
| 1778074164 | 25° C | 37% | 0 hPa | 0 mm | - | - | - |
| 1778073683 | 24.44° C | 39% | 0 hPa | 0 mm | - | - | - |
| 1778072963 | 23.89° C | 40% | 0 hPa | 0 mm | - | - | - |
| 1778072603 | 23.89° C | 40% | 0 hPa | 0 mm | - | - | - |
| 1778072243 | 23.89° C | 40% | 0 hPa | 0 mm | - | - | - |
| 1778067924 | 23.33° C | 40% | 0 hPa | 0 mm | - | - | - |
| 1778064564 | 21.67° C | 44% | 0 hPa | 0 mm | - | - | - |
| 1778063963 | 21.67° C | 44% | 0 hPa | 0 mm | - | - | - |
| 1778057365 | 21.11° C | 43% | 0 hPa | 0 mm | - | - | - |
| 1778056165 | 20.56° C | 39% | 0 hPa | 0 mm | - | - | - |
* Rain latest hour (hover to see other rain measurements)
** Current wind speed in m/s (hover to see current wind gust speed)